Regional Weather Roundup
Issued by NWS

Home | Current Version | Previous Version | Text Only | Print | Product List | Glossary On
Versions: 1 2 3 4 5 6 7 8 9 10 11 12 13 14 15 16 17 18 19 20 21 22 23 24 25 26 27 28 29 30 31 32 33 34 35 36 37 38 39 40 41 42 43 44 45 46 47 48 49 50
739
ASUS43 KDTX 290910
RWRMI
MICHIGAN HOURLY REGIONAL WEATHER ROUNDUP
NATIONAL WEATHER SERVICE DETROIT/PONTIAC MI
500 AM EDT FRI APR 29 2016

NOTE: "FAIR" INDICATES FEW OR NO CLOUDS BELOW 12,000 FEET WITH NO
SIGNIFICANT WEATHER AND/OR OBSTRUCTION TO VISIBILITY.

MIZ047>049-052>055-059>063-066>070-074>076-081>083-291000-
SOUTHEAST LOWER MICHIGAN

CITY           SKY/WX    TMP DP  RH WIND       PRES   REMARKS
ADRIAN         CLOUDY    46  33  60 NE6       30.02R
ALMA           CLOUDY    39  33  81 N5        30.05S
ANN ARBOR      CLOUDY    45  30  55 NE3       30.02R
BAD AXE        CLOUDY    40  36  84 CALM      30.05S
CARO           CLOUDY    40  34  77 CALM      30.03S
DETROIT CITY   CLOUDY    44  27  51 E6        30.03R
DETROIT        CLOUDY    45  29  53 NE6       30.03R
FLINT          CLOUDY    45  32  60 NE3       30.04R
GROSSE ILE     CLOUDY    45  34  65 CALM      30.01R
HILLSDALE      CLOUDY    44  38  79 CALM      30.00S
HOWELL         CLOUDY    43  32  65 CALM      30.02R

CITY           SKY/WX    TMP DP  RH WIND       PRES   REMARKS
JACKSON        CLOUDY    44  33  65 NE3       30.01S
LAMBERTVILLE   CLOUDY    47  38  71 NE5       30.02R
LANSING        CLOUDY    40  37  89 N3        30.03S
LAPEER         CLOUDY    41  33  73 CALM      30.03S
MASON          CLOUDY    42  33  71 NE3       30.01S
MONROE         CLOUDY    45  33  62 NE3       30.01S
MT. CLEMENS    CLOUDY    42  36  77 N6        30.01S
PONTIAC        CLOUDY    43  29  57 E5        30.01R
PORT HOPE        N/A     42  36  79 E5        30.05R
PORT HURON     CLOUDY    43  32  65 NE3       30.03S
TRI CITIES     CLOUDY    42  34  73 N5        30.05R
MIDLAND        CLOUDY    40  31  70 CALM      30.05R
TROY           CLOUDY    45  29  54 NE5       30.04R
SAGINAW HB     CLOUDY    41  34  75 CALM      30.04S
$$
MIZ043>046-050>051-056>058-064>065-071>073-077>080-291000-
SOUTHWEST LOWER MICHIGAN

CITY           SKY/WX    TMP DP  RH WIND       PRES   REMARKS
BATTLE CREEK   CLOUDY    43  37  79 NE6       30.01S
BENTON HARBOR  CLOUDY    46  39  76 SE6       30.01R
BIG RAPIDS     CLOUDY    39  29  68 CALM      30.05R
COLDWATER      CLOUDY    45  38  75 NE3       30.00S
FREMONT        CLOUDY    39  34  80 E5        30.03S
HOLLAND        CLOUDY    43  36  76 E6        30.03R
GRAND RAPIDS   CLOUDY    42  35  76 E6        30.03S
IONIA          CLOUDY    39  35  84 N6        30.03S
KALAMAZOO      CLOUDY    45  37  73 CALM      30.01S
LUDINGTON      RAIN      38  35  88 CALM      30.08R
MARSHALL       CLOUDY    44  37  77 CALM      30.01R
MOUNT PLEASANT CLOUDY    39  31  73 CALM      30.05R
MUSKEGON       CLOUDY    42  34  73 NE3       30.04R
SOUTH HAVEN    DRIZZLE   44  42  92 CALM      30.01R
$$
MIZ016>042-291000-
NORTHERN LOWER MICHIGAN

CITY           SKY/WX    TMP DP  RH WIND       PRES   REMARKS
ALPENA         CLOUDY    37  29  72 CALM      30.09R
BEAVER ISLAND  PTCLDY    33  29  86 CALM      30.11R
BELLAIRE       CLOUDY    42  29  60 CALM      30.09R
CADILLAC       CLOUDY    38  32  77 NE3       30.05R
CHARLEVOIX     CLOUDY    42  25  51 E5        30.13R
FRANKFORT      CLOUDY    43  30  59 E5        30.07S
GAYLORD        CLOUDY    39  22  50 CALM      30.08R
GRAYLING       CLOUDY    40  24  53 CALM      30.08R
HARBOR SPRINGS CLOUDY    37  28  69 CALM      30.11R
HOUGHTON LAKE  CLOUDY    39  23  52 N5        30.07R
MANISTEE       CLOUDY    43  28  56 NE3       30.07S
OSCODA         CLOUDY    42  32  69 NE5       30.06S
PELLSTON       CLOUDY    30  25  81 CALM      30.11R
ROGERS CITY    CLOUDY    31  28  92 CALM      30.11R
TRAVERSE CITY  CLOUDY    42  38  85 CALM      30.07S
$$
MIZ007>008-015-291000-
EASTERN UPPER MICHIGAN

CITY           SKY/WX    TMP DP  RH WIND       PRES   REMARKS
KINROSS          N/A     37  30  75 NE7       30.11R WCI  32
MACKINAC ISLAN CLOUDY    35  23  61 NE5       30.10S WCI  31
NEWBERRY       CLOUDY    34  31  92 CALM      30.11R
S. S. MARIE    PTCLDY    37  27  67 E6        30.12R WCI  32
MUNISING         N/A     33  30  88 S5        30.12R WCI  29
$$
MIZ004>006-011>014-085-291000-
CENTRAL UPPER MICHIGAN

CITY           SKY/WX    TMP DP  RH WIND       PRES   REMARKS
MANISTIQUE     MOCLDY    35  31  84 N3        30.10S
ESCANABA       CLOUDY    39  28  65 N5        30.12R
MENOMINEE      CLOUDY    43  27  52 NE6       30.10R
SAWYER-GWINN   CLOUDY    34  28  76 NW3       30.12R
$$
MIZ001>003-009>011-084-291000-
WESTERN UPPER MICHIGAN

CITY           SKY/WX    TMP DP  RH WIND       PRES   REMARKS
IRON MOUNTAIN  CLOUDY    39  26  59 N7        30.09S WCI  34
HOUGHTON       PTCLDY    31  24  75 CALM      30.12R
COPPER HARBOR    N/A     31  29  92 SW3       30.13R
IRONWOOD       CLOUDY    30  28  93 CALM      30.11R
$$

ABBREVIATIONS USED IN REMARKS
   TC - TEMPERATURE IN CELSIUS
  WCI - WIND CHILL INDEX
   HX - HEAT INDEX
  VSB - VISIBILITY





USA.gov is the U.S. government's official web portal to all federal, state and local government web resources and services.